TimeMDT,TemperatureF,Dew PointF,Humidity,Sea Level PressureIn,VisibilityMPH,Wind Direction,Wind SpeedMPH,Gust SpeedMPH,PrecipitationIn,Events,Conditions,WindDirDegrees,DateUTC
12:54 AM,55.9,36.0,47,30.05,10.0,NNW,10.4,-,N/A,,Clear,340,2012-10-01 06:54:00
1:54 AM,59.0,35.1,41,30.05,10.0,NNW,12.7,-,N/A,,Scattered Clouds,330,2012-10-01 07:54:00
2:54 AM,55.9,36.0,47,30.06,10.0,NNW,12.7,-,N/A,,Clear,330,2012-10-01 08:54:00
3:54 AM,55.0,36.0,49,30.08,10.0,NNW,13.8,-,N/A,,Clear,330,2012-10-01 09:54:00
4:54 AM,55.0,37.0,51,30.12,10.0,NNW,20.7,28.8,N/A,,Clear,340,2012-10-01 10:54:00
5:54 AM,54.0,37.9,55,30.15,10.0,NNW,20.7,25.3,N/A,,Scattered Clouds,340,2012-10-01 11:54:00
6:54 AM,53.1,41.0,64,30.21,10.0,North,21.9,31.1,N/A,,Mostly Cloudy,350,2012-10-01 12:54:00
7:54 AM,52.0,41.0,66,30.25,10.0,NNW,12.7,-,N/A,,Mostly Cloudy,340,2012-10-01 13:54:00
8:54 AM,53.1,41.0,64,30.26,10.0,NNW,13.8,-,N/A,,Mostly Cloudy,330,2012-10-01 14:54:00
9:54 AM,55.0,39.0,55,30.24,10.0,NW,17.3,24.2,N/A,,Mostly Cloudy,320,2012-10-01 15:54:00
10:54 AM,61.0,37.9,42,30.20,10.0,NW,15.0,24.2,0.00,,Scattered Clouds,320,2012-10-01 16:54:00
11:54 AM,63.0,36.0,37,30.19,10.0,North,13.8,19.6,N/A,,Scattered Clouds,350,2012-10-01 17:54:00
12:54 PM,64.9,36.0,34,30.15,10.0,North,15.0,23.0,N/A,,Scattered Clouds,350,2012-10-01 18:54:00
1:54 PM,66.9,36.0,32,30.10,10.0,North,17.3,23.0,N/A,,Scattered Clouds,10,2012-10-01 19:54:00
2:54 PM,68.0,35.6,30,30.29,10.0,NNE,17.3,24.2,N/A,,Partly Cloudy,20,2012-10-01 20:54:00
3:54 PM,66.9,37.0,33,30.09,10.0,North,15.0,24.2,N/A,,Partly Cloudy,10,2012-10-01 21:54:00
4:54 PM,64.9,36.0,34,30.09,10.0,NNE,13.8,-,N/A,,Partly Cloudy,20,2012-10-01 22:54:00
5:54 PM,63.0,35.1,35,30.10,10.0,NNE,15.0,-,N/A,,Mostly Cloudy,30,2012-10-01 23:54:00
6:54 PM,57.9,34.0,41,30.13,10.0,NE,10.4,-,N/A,,Partly Cloudy,40,2012-10-02 00:54:00
7:54 PM,54.0,35.1,49,30.17,10.0,NE,8.1,-,N/A,,Clear,40,2012-10-02 01:54:00
8:54 PM,48.9,36.0,61,30.19,10.0,NNW,3.5,-,N/A,,Clear,340,2012-10-02 02:54:00
9:54 PM,48.9,36.0,61,30.18,10.0,North,3.5,-,N/A,,Clear,10,2012-10-02 03:54:00
10:54 PM,48.9,36.0,61,30.15,10.0,Calm,Calm,-,N/A,,Clear,0,2012-10-02 04:54:00
11:54 PM,50.0,34.0,54,30.12,10.0,South,5.8,-,N/A,,Clear,170,2012-10-02 05:54:00